• In Netherlands
  • List of Countries
  • For 7 days
  • Water Temperature
  • Satellite Maps
  • Weather Map
  • Weather Widgets
  • user-avatar
    Login

    Hourly Weather Belmopan

    Today, 21 January, Sunday

    Time Temperature Precipitation Wind Pressure Humidity
    00:00 +23°C° 0 mm 1 mps 755 mmHg 99%
    01:00 +23°C° 0.2 mm 1 mps 754 mmHg 99%
    02:00 +23°C° 0.2 mm 1 mps 754 mmHg 99%
    03:00 +23°C° 0.2 mm 1 mps 754 mmHg 99%
    04:00 +23°C° 0.1 mm 1 mps 753 mmHg 99%
    05:00 +23°C° 0.1 mm 1 mps 753 mmHg 99%
    06:00 +23°C° 0 mm 1 mps 753 mmHg 99%
    07:00 +24°C° 0.1 mm 1 mps 754 mmHg 98%
    08:00 +25°C° 0.1 mm 1 mps 754 mmHg 96%
    09:00 +25°C° 0.1 mm 1 mps 754 mmHg 95%
    10:00 +26°C° 0.3 mm 1 mps 754 mmHg 92%
    11:00 +27°C° 0.3 mm 1 mps 753 mmHg 89%
    12:00 +28°C° 0.3 mm 1 mps 753 mmHg 86%
    13:00 +28°C° 0.5 mm 1 mps 752 mmHg 82%
    14:00 +29°C° 0.5 mm 2 mps 752 mmHg 78%
    15:00 +29°C° 0.5 mm 2 mps 751 mmHg 75%
    16:00 +28°C° 0.1 mm 2 mps 751 mmHg 80%
    17:00 +27°C° 0.1 mm 1 mps 751 mmHg 85%
    18:00 +26°C° 0.1 mm 1 mps 751 mmHg 90%
    19:00 +25°C° 0 mm 1 mps 752 mmHg 93%
    20:00 +24°C° 0 mm 1 mps 752 mmHg 96%
    21:00 +24°C° 0 mm 1 mps 753 mmHg 99%
    22:00 +22°C° 0 mm 0 mps 752 mmHg 99%
    23:00 +22°C° 0 mm 0 mps 752 mmHg 99%

    Tomorrow, 22 January, Monday

    Time Temperature Precipitation Wind Pressure Humidity
    00:00 +22°C° 0 mm 0 mps 752 mmHg 99%
    01:00 +22°C° 0 mm 0 mps 752 mmHg 99%
    02:00 +22°C° 0 mm 0 mps 752 mmHg 99%
    03:00 +22°C° 0 mm 0 mps 751 mmHg 99%
    04:00 +22°C° 0.1 mm 0 mps 751 mmHg 99%
    05:00 +22°C° 0.1 mm 0 mps 751 mmHg 99%
    06:00 +22°C° 0.1 mm 0 mps 751 mmHg 99%
    07:00 +25°C° 0.1 mm 1 mps 752 mmHg 96%
    08:00 +26°C° 0.1 mm 1 mps 753 mmHg 93%
    09:00 +27°C° 0.1 mm 1 mps 753 mmHg 90%
    10:00 +28°C° 0.2 mm 2 mps 753 mmHg 80%
    11:00 +30°C° 0.2 mm 2 mps 753 mmHg 70%
    12:00 +31°C° 0.2 mm 2 mps 753 mmHg 60%
    13:00 +31°C° 0.1 mm 2 mps 752 mmHg 60%
    14:00 +31°C° 0.1 mm 2 mps 751 mmHg 60%
    15:00 +31°C° 0.1 mm 2 mps 751 mmHg 60%
    16:00 +30°C° 0 mm 2 mps 751 mmHg 68%
    17:00 +28°C° 0 mm 2 mps 751 mmHg 76%
    18:00 +26°C° 0 mm 1 mps 751 mmHg 83%
    19:00 +25°C° 0 mm 1 mps 752 mmHg 88%
    20:00 +24°C° 0 mm 1 mps 752 mmHg 93%
    21:00 +23°C° 0 mm 1 mps 753 mmHg 98%
    22:00 +23°C° 0.1 mm 1 mps 753 mmHg 99%
    23:00 +21°C° 0.1 mm 0 mps 753 mmHg 99%

    Day after tomorrow, 23 January, Tuesday

    Time Temperature Precipitation Wind Pressure Humidity
    00:00 +21°C° 0.1 mm 0 mps 753 mmHg 99%
    01:00 +21°C° 0.1 mm 0 mps 753 mmHg 99%
    02:00 +21°C° 0.1 mm 0 mps 752 mmHg 99%
    03:00 +22°C° 0.1 mm 0 mps 752 mmHg 99%
    04:00 +22°C° 0.1 mm 0 mps 752 mmHg 99%
    05:00 +22°C° 0.1 mm 0 mps 753 mmHg 99%
    06:00 +22°C° 0.1 mm 0 mps 753 mmHg 99%
    07:00 +22°C° 0.3 mm 0 mps 754 mmHg 97%
    08:00 +23°C° 0.3 mm 0 mps 754 mmHg 95%
    09:00 +24°C° 0.3 mm 0 mps 755 mmHg 93%
    10:00 +26°C° 0.9 mm 1 mps 755 mmHg 92%
    11:00 +27°C° 0.9 mm 1 mps 754 mmHg 90%
    12:00 +28°C° 0.9 mm 1 mps 754 mmHg 89%
    13:00 +28°C° 0.8 mm 1 mps 753 mmHg 86%
    14:00 +28°C° 0.8 mm 1 mps 753 mmHg 83%
    15:00 +28°C° 0.8 mm 1 mps 752 mmHg 80%
    16:00 +27°C° 0.3 mm 1 mps 752 mmHg 85%
    17:00 +26°C° 0.3 mm 1 mps 752 mmHg 90%
    18:00 +25°C° 0.3 mm 1 mps 753 mmHg 95%
    19:00 +24°C° 0.1 mm 1 mps 753 mmHg 96%
    20:00 +24°C° 0.1 mm 1 mps 754 mmHg 97%
    21:00 +23°C° 0.1 mm 1 mps 755 mmHg 99%
    22:00 +23°C° 0.1 mm 1 mps 755 mmHg 99%
    23:00 +23°C° 0.1 mm 1 mps 755 mmHg 99%

    24 January, Wednesday

    Time Temperature Precipitation Wind Pressure Humidity
    00:00 +21°C° 0.1 mm 0 mps 755 mmHg 99%
    01:00 +21°C° 0.1 mm 0 mps 754 mmHg 99%
    02:00 +21°C° 0.1 mm 0 mps 754 mmHg 99%
    03:00 +21°C° 0.1 mm 0 mps 754 mmHg 99%
    04:00 +21°C° 0.2 mm 0 mps 754 mmHg 99%
    05:00 +21°C° 0.2 mm 0 mps 754 mmHg 99%
    06:00 +21°C° 0.2 mm 0 mps 755 mmHg 99%
    07:00 +24°C° 0.2 mm 1 mps 755 mmHg 98%
    08:00 +24°C° 0.2 mm 1 mps 756 mmHg 97%
    09:00 +25°C° 0.2 mm 1 mps 756 mmHg 95%
    10:00 +26°C° 0.3 mm 1 mps 756 mmHg 87%
    11:00 +27°C° 0.3 mm 1 mps 756 mmHg 79%
    12:00 +29°C° 0.3 mm 1 mps 755 mmHg 71%
    13:00 +29°C° 0.1 mm 2 mps 755 mmHg 66%
    14:00 +30°C° 0.1 mm 2 mps 754 mmHg 61%
    15:00 +30°C° 0.1 mm 2 mps 753 mmHg 56%
    16:00 +29°C° 0.1 mm 2 mps 753 mmHg 66%
    17:00 +27°C° 0.1 mm 1 mps 754 mmHg 76%
    18:00 +25°C° 0.1 mm 1 mps 754 mmHg 85%
    19:00 +25°C° 0.3 mm 1 mps 755 mmHg 89%
    20:00 +24°C° 0.3 mm 1 mps 755 mmHg 93%
    21:00 +22°C° 0.3 mm 0 mps 756 mmHg 96%
    22:00 +21°C° 0.9 mm 0 mps 756 mmHg 97%
    23:00 +21°C° 0.9 mm 0 mps 756 mmHg 98%

    25 January, Thursday

    Time Temperature Precipitation Wind Pressure Humidity
    00:00 +21°C° 0.9 mm 0 mps 756 mmHg 99%
    01:00 +21°C° 0.9 mm 0 mps 755 mmHg 99%
    02:00 +21°C° 0.9 mm 0 mps 755 mmHg 99%
    03:00 +20°C° 0.9 mm 0 mps 754 mmHg 99%
    04:00 +20°C° 0.7 mm 0 mps 755 mmHg 99%
    05:00 +20°C° 0.7 mm 0 mps 755 mmHg 99%
    06:00 +22°C° 0.7 mm 1 mps 755 mmHg 99%
    07:00 +23°C° 0.3 mm 1 mps 756 mmHg 98%
    08:00 +23°C° 0.3 mm 1 mps 756 mmHg 97%
    09:00 +22°C° 0.3 mm 0 mps 757 mmHg 96%
    10:00 +24°C° 0.8 mm 1 mps 756 mmHg 95%
    11:00 +25°C° 0.8 mm 1 mps 756 mmHg 95%
    12:00 +25°C° 0.8 mm 1 mps 756 mmHg 94%
    13:00 +25°C° 0.5 mm 1 mps 755 mmHg 93%
    14:00 +26°C° 0.5 mm 1 mps 754 mmHg 93%
    15:00 +26°C° 0.5 mm 1 mps 753 mmHg 92%
    16:00 +25°C° 0.1 mm 1 mps 753 mmHg 94%
    17:00 +24°C° 0.1 mm 1 mps 753 mmHg 96%
    18:00 +24°C° 0.1 mm 1 mps 754 mmHg 97%
    19:00 +23°C° 0.1 mm 1 mps 754 mmHg 98%
    20:00 +23°C° 0.1 mm 1 mps 754 mmHg 98%
    21:00 +23°C° 0.1 mm 1 mps 755 mmHg 99%
    22:00 +21°C° 0.7 mm 0 mps 755 mmHg 99%
    23:00 +21°C° 0.7 mm 0 mps 754 mmHg 99%

    26 January, Friday

    Time Temperature Precipitation Wind Pressure Humidity
    00:00 +20°C° 0.7 mm 0 mps 754 mmHg 99%
    01:00 +20°C° 0.2 mm 0 mps 754 mmHg 99%
    02:00 +20°C° 0.2 mm 0 mps 753 mmHg 99%
    03:00 +20°C° 0.2 mm 0 mps 753 mmHg 99%
    04:00 +20°C° 0.2 mm 0 mps 753 mmHg 99%
    05:00 +20°C° 0.2 mm 0 mps 753 mmHg 99%
    06:00 +20°C° 0.2 mm 0 mps 754 mmHg 99%
    07:00 +21°C° 0.5 mm 0 mps 754 mmHg 97%
    08:00 +22°C° 0.5 mm 0 mps 755 mmHg 95%
    09:00 +23°C° 0.5 mm 0 mps 755 mmHg 93%
    10:00 +26°C° 0.6 mm 1 mps 755 mmHg 91%
    11:00 +26°C° 0.6 mm 1 mps 754 mmHg 89%
    12:00 +27°C° 0.6 mm 1 mps 754 mmHg 86%
    13:00 +27°C° 0.7 mm 1 mps 753 mmHg 87%
    14:00 +27°C° 0.7 mm 1 mps 752 mmHg 88%
    15:00 +27°C° 0.7 mm 2 mps 751 mmHg 89%
    16:00 +26°C° 0.3 mm 1 mps 752 mmHg 92%
    17:00 +25°C° 0.3 mm 1 mps 752 mmHg 95%
    18:00 +24°C° 0.3 mm 1 mps 752 mmHg 98%
    19:00 +24°C° 0.1 mm 1 mps 752 mmHg 99%
    20:00 +23°C° 0.1 mm 1 mps 753 mmHg 99%
    21:00 +23°C° 0.1 mm 1 mps 753 mmHg 99%
    22:00 +23°C° 0.1 mm 1 mps 753 mmHg 99%
    23:00 +23°C° 0.1 mm 1 mps 753 mmHg 99%
    Show more